Location: Albany
(35.0000°S, 118.0000°E)
Time: 00:55:06
(UTC-05:00)

Atlas Centaur 2 - Visible Passes

Search period start: 18 January 2017 00:00
Search period end: 28 January 2017 00:00
Orbit: 459 x 1314 km, 30.4° (Epoch: 17 January)

Date Brightness Start Highest point End Pass type
(mag) Time Alt. Az. Time Alt. Az. Time Alt. Az.
18 Jan 3.5 13:13:46 27° ENE 13:13:46 27° ENE 13:17:01 10° E visible
18 Jan 2.5 14:56:25 19° WNW 15:00:19 57° N 15:07:10 10° ENE visible
19 Jan 3.5 13:10:55 25° ENE 13:10:55 25° ENE 13:13:47 10° E visible
19 Jan 2.4 14:53:35 21° WNW 14:57:08 55° N 15:03:48 10° ENE visible
20 Jan 3.7 13:08:09 23° ENE 13:08:09 23° ENE 13:10:32 10° E visible
20 Jan 2.4 14:50:49 23° WNW 14:53:58 52° N 15:00:24 10° ENE visible
21 Jan 3.9 13:05:28 19° ENE 13:05:28 19° ENE 13:07:16 10° E visible
21 Jan 2.4 14:48:08 26° WNW 14:50:48 48° N 14:56:59 10° ENE visible
22 Jan 4.1 13:02:54 15° ENE 13:02:54 15° ENE 13:04:00 10° ENE visible
22 Jan 2.4 14:45:34 29° WNW 14:47:39 43° N 14:53:31 10° ENE visible
23 Jan 4.4 13:00:29 11° ENE 13:00:29 11° ENE 13:00:44 10° ENE visible
23 Jan 2.5 14:43:10 32° NW 14:44:31 37° NNW 14:50:01 10° NE visible
24 Jan 2.6 14:40:54 31° NNW 14:41:22 31° NNW 14:46:26 10° NE visible
25 Jan 3.0 14:38:48 25° N 14:38:48 25° N 14:42:45 10° NE visible
26 Jan 3.6 14:36:51 17° N 14:36:51 17° N 14:38:56 10° NNE visible
